User: anonymous   Login
Location: Fort Hays State University
(38.8712°N, 99.3432°W)
Time: 17:30:33
(UTC-05:00)
Language:

Cosmos 2279 Rocket - Orbit

View from above orbital plane
View from above orbital plane
View from above satellite
View from above satellite

Ground track
Ground track

The orbit data is extracted from the following two-line orbital elements,

1 23093U 94024B   17085.72303956 +.00000038 +00000-0 +22321-4 0  9997
2 23093 082.9499 175.8277 0009133 229.1802 130.8565 13.77719706620078
Epoch (UTC): 26 March 2017 17:21:10
Eccentricity: 0.0009133
inclination: 82.9499°
perigee height: 965 km
apogee height: 979 km
right ascension of ascending node: 175.8277°
argument of perigee: 229.1802°
revolutions per day: 13.77719706
mean anomaly at epoch: 130.8565°
orbit number at epoch: 62007

The dashed part of the orbit path shows where the satellite is in the earth's shadow,  

DLR